Location: Del Amo
(33.8464°N, 118.2104°W)
Time: 03:39:12
(UTC+00:00)

S-56A Canister/Altair - Pass Details

Date: 14 September 2024
Orbit: 636 x 2487 km, 38.9° (Epoch: 05 October)

Event Time Altitude Azimuth Distance (km) Brightness Sun altitude
Rises 00:18:00 0° 197° (SSW) 2,950 10.9 20.5°
Reaches altitude 10° 00:20:51 10° 176° (S) 2,138 10.0 19.9°
Maximum altitude 00:24:03 17° 135° (SE) 1,847 9.3 19.3°
Drops below altitude 10° 00:27:46 10° 94° (E) 2,565 9.7 18.5°
Sets 00:31:40 0° 77° (ENE) 3,832 10.5 17.7°
